Decatur, AL

11:16 AM CDT on July 27, 2017 (GMT -0500)
Pryor Regional

Weather History for KDCU - January, 2013

Change the Weather History Date:

Thursday, January 24, 2013

  Actual Average Record
Temperature  
Mean Temperature 40 °F -  
Max Temperature 45 °F 51 °F 75 °F (1972)
Min Temperature 35 °F 30 °F -5 °F (1963)
Degree Days  
Heating Degree Days 25    
Moisture  
Dew Point 24 °F    
Average Humidity 54    
Maximum Humidity 86    
Minimum Humidity 34    
Precipitation  
Precipitation 0.00 in - - ()
Sea Level Pressure  
Sea Level Pressure 30.33 in    
Wind  
Wind Speed 6 mph (NNE)    
Max Wind Speed 16 mph    
Max Gust Speed 24 mph    
Visibility 10 miles    
Events      
Averages and records for this station are not official NWS values.
T = Trace of Precipitation, MM = Missing Value Source: NWS Daily Summary

Daily Weather History Graph

Daily Weather History Graph

Search for Another Location

Airport or City:

Trip Planner

Search our weather history database for the weather conditions in past years. The results will help you decide how hot, cold, wet, or windy it might be!

Date:

Astronomy

Jan. 24, 2013 Rise Set
Actual Time 6:50 AM CST 5:09 PM CST
Civil Twilight 6:23 AM CST 5:36 PM CST
Nautical Twilight 5:53 AM CST 6:06 PM CST
Astronomical Twilight 5:23 AM CST 6:36 PM CST
Moon 3:12 PM CST (1/24) 4:46 AM CST (1/24)
Length of Visible Light 11h 12m
Length of Day
10h 18m
Waxing Gibbous, 94% of the Moon is Illuminated
Jan 24
Waxing Gibbous
Jan 26
Full
Feb 3
Last Quarter
Feb 10
New
Feb 17
First Quarter

Hourly Weather History & Observations

Time (CST) Temp. Windchill Dew Point Humidity Pressure Visibility Wind Dir Wind Speed Gust Speed Precip Events Conditions
12:53 AM 43.0 °F - 37.0 °F 80% 30.22 in 10.0 mi Calm Calm - N/A   Mostly Cloudy
1:53 AM 39.9 °F - 36.0 °F 86% 30.22 in 10.0 mi Calm Calm - N/A   Partly Cloudy
2:53 AM 43.0 °F 40.3 °F 37.9 °F 82% 30.23 in 10.0 mi North 4.6 mph - N/A   Overcast
3:53 AM 45.0 °F 42.6 °F 39.0 °F 80% 30.23 in 10.0 mi NNW 4.6 mph - N/A   Overcast
4:53 AM 45.0 °F 40.1 °F 36.0 °F 71% 30.25 in 10.0 mi North 9.2 mph - N/A   Overcast
5:53 AM 41.0 °F 32.8 °F 28.9 °F 62% 30.29 in 10.0 mi North 16.1 mph 24.2 mph N/A   Scattered Clouds
6:53 AM 39.0 °F 34.0 °F 30.0 °F 70% 30.33 in 10.0 mi NE 6.9 mph - N/A   Clear
7:53 AM 37.9 °F 32.1 °F 28.0 °F 68% 30.37 in 10.0 mi NNE 8.1 mph - N/A   Clear
8:53 AM 37.9 °F 32.1 °F 23.0 °F 55% 30.40 in 10.0 mi NE 8.1 mph - N/A   Mostly Cloudy
9:53 AM 39.9 °F 33.4 °F 21.0 °F 47% 30.42 in 10.0 mi NNE 10.4 mph - N/A   Clear
10:53 AM 39.9 °F 32.5 °F 19.9 °F 45% 30.42 in 10.0 mi NNE 12.7 mph - N/A   Clear
11:53 AM 42.1 °F 35.2 °F 21.0 °F 43% 30.40 in 10.0 mi NNE 12.7 mph 17.3 mph N/A   Clear
12:53 PM 43.0 °F 36.8 °F 17.1 °F 35% 30.39 in 10.0 mi North 11.5 mph 18.4 mph N/A   Clear
1:53 PM 43.0 °F 38.8 °F 16.0 °F 34% 30.38 in 10.0 mi North 6.9 mph - N/A   Clear
2:53 PM 43.0 °F 36.4 °F 16.0 °F 34% 30.37 in 10.0 mi North 12.7 mph - N/A   Partly Cloudy
3:53 PM 42.1 °F 35.7 °F 16.0 °F 35% 30.37 in 10.0 mi NNE 11.5 mph - N/A   Clear
4:53 PM 39.9 °F 34.5 °F 18.0 °F 41% 30.36 in 10.0 mi NNE 8.1 mph - N/A   Partly Cloudy
5:53 PM 36.0 °F 31.1 °F 19.9 °F 52% 30.37 in 10.0 mi North 5.8 mph - N/A   Clear
6:53 PM 35.1 °F 31.0 °F 18.0 °F 50% 30.38 in 10.0 mi NNE 4.6 mph - N/A   Clear
7:53 PM 36.0 °F 31.1 °F 18.0 °F 48% 30.36 in 10.0 mi ENE 5.8 mph - N/A   Overcast
8:53 PM 35.1 °F 30.1 °F 17.1 °F 48% 30.34 in 10.0 mi NE 5.8 mph - N/A   Mostly Cloudy
9:53 PM 35.1 °F 32.2 °F 16.0 °F 46% 30.33 in 10.0 mi NE 3.5 mph - N/A   Overcast
10:53 PM 36.0 °F 33.3 °F 18.0 °F 48% 30.31 in 10.0 mi East 3.5 mph - N/A   Overcast
11:53 PM 39.0 °F 33.4 °F 19.0 °F 45% 30.27 in 10.0 mi ESE 8.1 mph - N/A   Overcast